Time,TemperatureF,DewpointF,PressureIn,WindDirection,WindDirectionDegrees,WindSpeedMPH,WindSpeedGustMPH,Humidity,HourlyPrecipIn,Conditions,Clouds,dailyrainin,SoftwareType,DateUTC
2013-06-24 00:02:00,77.0,73.0,30.10,East,98,0.0,1.0,87,0.00,,,0.00,,2013-06-24 04:02:00,
2013-06-24 00:12:00,76.0,72.0,30.11,East,98,0.0,0.0,87,0.00,,,0.00,,2013-06-24 04:12:00,
2013-06-24 00:22:00,76.0,72.0,30.11,East,98,0.0,0.0,87,0.00,,,0.00,,2013-06-24 04:22:00,
2013-06-24 00:33:00,76.0,72.0,30.11,East,98,0.0,0.0,87,0.00,,,0.00,,2013-06-24 04:33:00,
2013-06-24 00:43:00,75.0,71.0,30.11,East,98,0.0,0.0,88,0.00,,,0.00,,2013-06-24 04:43:00,
2013-06-24 00:52:00,75.0,71.0,30.11,East,98,0.0,0.0,88,0.00,,,0.00,,2013-06-24 04:52:00,
2013-06-24 01:02:00,75.0,72.0,30.10,East,98,0.0,0.0,89,0.00,,,0.00,,2013-06-24 05:02:00,
2013-06-24 01:12:00,75.0,72.0,30.10,East,98,0.0,0.0,89,0.00,,,0.00,,2013-06-24 05:12:00,
2013-06-24 01:22:00,74.0,71.0,30.10,East,98,0.0,0.0,89,0.00,,,0.00,,2013-06-24 05:22:00,
2013-06-24 01:36:00,74.0,71.0,30.11,East,98,0.0,0.0,89,0.00,,,0.00,,2013-06-24 05:36:00,
2013-06-24 01:46:00,74.0,71.0,30.11,East,98,0.0,0.0,89,0.00,,,0.00,,2013-06-24 05:46:00,
2013-06-24 01:53:00,74.0,71.0,30.10,East,98,0.0,0.0,89,0.00,,,0.00,,2013-06-24 05:53:00,
2013-06-24 02:14:00,74.0,71.0,30.10,East,98,0.0,0.0,90,0.00,,,0.00,,2013-06-24 06:14:00,
2013-06-24 02:24:00,74.0,71.0,30.10,East,98,0.0,0.0,90,0.00,,,0.00,,2013-06-24 06:24:00,
2013-06-24 02:37:00,74.0,71.0,30.10,East,98,0.0,0.0,90,0.00,,,0.00,,2013-06-24 06:37:00,
2013-06-24 02:45:00,73.0,70.0,30.08,East,98,0.0,0.0,90,0.00,,,0.00,,2013-06-24 06:45:00,
2013-06-24 02:57:00,73.0,70.0,30.08,East,98,0.0,0.0,90,0.00,,,0.00,,2013-06-24 06:57:00,
2013-06-24 03:15:00,73.0,70.0,30.08,East,98,0.0,0.0,90,0.00,,,0.00,,2013-06-24 07:15:00,
2013-06-24 03:29:00,73.0,70.0,30.08,East,98,0.0,0.0,90,0.00,,,0.00,,2013-06-24 07:29:00,
2013-06-24 03:37:00,73.0,70.0,30.08,East,98,0.0,0.0,90,0.00,,,0.00,,2013-06-24 07:37:00,
2013-06-24 03:47:00,72.0,69.0,30.08,East,98,0.0,0.0,90,0.00,,,0.00,,2013-06-24 07:47:00,
2013-06-24 03:54:00,72.0,69.0,30.08,East,98,0.0,0.0,90,0.00,,,0.00,,2013-06-24 07:54:00,
2013-06-24 04:04:00,72.0,69.0,30.08,East,98,0.0,0.0,90,0.00,,,0.00,,2013-06-24 08:04:00,
2013-06-24 04:14:00,72.0,69.0,30.08,East,98,0.0,0.0,90,0.00,,,0.00,,2013-06-24 08:14:00,
2013-06-24 04:26:00,72.0,69.0,30.08,East,98,0.0,0.0,90,0.00,,,0.00,,2013-06-24 08:26:00,
2013-06-24 04:36:00,72.0,69.0,30.08,East,98,0.0,0.0,90,0.00,,,0.00,,2013-06-24 08:36:00,
2013-06-24 04:46:00,72.0,69.0,30.08,East,98,0.0,0.0,90,0.00,,,0.00,,2013-06-24 08:46:00,
2013-06-24 05:15:00,72.0,69.0,30.07,East,98,0.0,0.0,90,0.00,,,0.00,,2013-06-24 09:15:00,
2013-06-24 05:26:00,72.0,69.0,30.07,East,98,0.0,0.0,91,0.00,,,0.00,,2013-06-24 09:26:00,
2013-06-24 05:37:00,72.0,69.0,30.07,East,98,0.0,0.0,91,0.00,,,0.00,,2013-06-24 09:37:00,
2013-06-24 05:47:00,72.0,69.0,30.07,East,98,0.0,0.0,91,0.00,,,0.00,,2013-06-24 09:47:00,
2013-06-24 05:55:00,72.0,69.0,30.07,East,98,0.0,0.0,91,0.00,,,0.00,,2013-06-24 09:55:00,
2013-06-24 06:05:00,72.0,69.0,30.08,East,98,0.0,0.0,91,0.00,,,0.00,,2013-06-24 10:05:00,
2013-06-24 06:14:00,72.0,69.0,30.08,East,98,0.0,0.0,91,0.00,,,0.00,,2013-06-24 10:14:00,
2013-06-24 06:24:00,72.0,69.0,30.09,East,98,0.0,0.0,91,0.00,,,0.00,,2013-06-24 10:24:00,
2013-06-24 06:37:00,72.0,69.0,30.09,East,98,0.0,0.0,91,0.00,,,0.00,,2013-06-24 10:37:00,
2013-06-24 06:49:00,73.0,70.0,30.09,East,98,0.0,0.0,91,0.00,,,0.00,,2013-06-24 10:49:00,
2013-06-24 07:03:00,73.0,70.0,30.09,East,98,0.0,0.0,91,0.00,,,0.00,,2013-06-24 11:03:00,
2013-06-24 07:15:00,73.0,70.0,30.09,East,98,0.0,0.0,91,0.00,,,0.00,,2013-06-24 11:15:00,
2013-06-24 07:29:00,73.0,70.0,30.09,East,98,0.0,0.0,91,0.00,,,0.00,,2013-06-24 11:29:00,
2013-06-24 07:35:00,73.0,70.0,30.09,East,98,0.0,0.0,91,0.00,,,0.00,,2013-06-24 11:35:00,
2013-06-24 07:50:00,74.0,72.0,30.09,East,98,0.0,1.0,92,0.00,,,0.00,,2013-06-24 11:50:00,
2013-06-24 07:58:00,74.0,72.0,30.10,East,98,0.0,0.0,92,0.00,,,0.00,,2013-06-24 11:58:00,
2013-06-24 08:05:00,75.0,72.0,30.10,East,98,0.0,0.0,91,0.00,,,0.00,,2013-06-24 12:05:00,
2013-06-24 08:16:00,76.0,73.0,30.10,East,97,0.0,1.0,90,0.00,,,0.00,,2013-06-24 12:16:00,
2013-06-24 08:36:00,78.0,74.0,30.10,ENE,74,0.0,3.0,88,0.00,,,0.00,,2013-06-24 12:36:00,
2013-06-24 08:48:00,79.0,74.0,30.10,ENE,77,1.0,3.0,86,0.00,,,0.00,,2013-06-24 12:48:00,
2013-06-24 08:53:00,80.0,75.0,30.11,NE,46,0.0,4.0,84,0.00,,,0.00,,2013-06-24 12:53:00,
2013-06-24 09:06:00,81.0,75.0,30.11,NNE,32,0.0,4.0,83,0.00,,,0.00,,2013-06-24 13:06:00,
2013-06-24 09:24:00,81.0,75.0,30.11,NNE,32,0.0,4.0,83,0.00,,,0.00,,2013-06-24 13:24:00,
2013-06-24 09:43:00,83.0,76.0,30.12,ENE,59,0.0,5.0,80,0.00,,,0.00,,2013-06-24 13:43:00,
2013-06-24 09:58:00,83.0,76.0,30.12,ENE,59,0.0,5.0,80,0.00,,,0.00,,2013-06-24 13:58:00,
2013-06-24 10:03:00,84.0,76.0,30.12,SSE,154,1.0,4.0,77,0.00,,,0.00,,2013-06-24 14:03:00,
2013-06-24 10:25:00,85.0,77.0,30.12,SSE,150,0.0,4.0,76,0.00,,,0.00,,2013-06-24 14:25:00,
2013-06-24 10:37:00,85.0,77.0,30.12,SSE,150,0.0,4.0,76,0.00,,,0.00,,2013-06-24 14:37:00,
2013-06-24 10:45:00,85.0,77.0,30.12,SSE,150,0.0,4.0,76,0.00,,,0.00,,2013-06-24 14:45:00,
2013-06-24 11:15:00,87.0,76.0,30.13,ENE,65,0.0,8.0,71,0.00,,,0.00,,2013-06-24 15:15:00,
2013-06-24 11:27:00,87.0,76.0,30.13,ENE,65,0.0,8.0,71,0.00,,,0.00,,2013-06-24 15:27:00,
2013-06-24 11:36:00,88.0,78.0,30.13,SE,126,0.0,7.0,72,0.00,,,0.00,,2013-06-24 15:36:00,
2013-06-24 11:45:00,88.0,78.0,30.13,SE,126,0.0,7.0,72,0.00,,,0.00,,2013-06-24 15:45:00,
2013-06-24 11:54:00,89.0,76.0,30.13,SSE,157,0.0,3.0,66,0.00,,,0.00,,2013-06-24 15:54:00,
2013-06-24 12:12:00,90.0,76.0,30.13,NE,46,0.0,6.0,64,0.00,,,0.00,,2013-06-24 16:12:00,
2013-06-24 12:15:00,89.0,76.0,30.13,ENE,76,0.0,10.0,65,0.00,,,0.00,,2013-06-24 16:15:00,
2013-06-24 12:24:00,88.0,77.0,30.13,NE,47,0.0,1.0,69,0.00,,,0.00,,2013-06-24 16:24:00,
2013-06-24 12:36:00,90.0,76.0,30.13,NE,46,0.0,6.0,64,0.00,,,0.00,,2013-06-24 16:36:00,
2013-06-24 12:43:00,90.0,76.0,30.13,NE,46,0.0,6.0,64,0.00,,,0.00,,2013-06-24 16:43:00,
2013-06-24 12:55:00,90.0,76.0,30.13,NE,46,0.0,6.0,64,0.00,,,0.00,,2013-06-24 16:55:00,
2013-06-24 13:05:00,90.0,76.0,30.13,NE,46,0.0,6.0,64,0.00,,,0.00,,2013-06-24 17:05:00,
2013-06-24 13:36:00,92.0,75.0,30.11,ESE,118,3.0,6.0,57,0.00,,,0.00,,2013-06-24 17:36:00,
2013-06-24 13:47:00,92.0,76.0,30.11,ENE,73,0.0,6.0,59,0.00,,,0.00,,2013-06-24 17:47:00,
2013-06-24 13:57:00,92.0,76.0,30.10,SE,146,3.0,6.0,59,0.00,,,0.00,,2013-06-24 17:57:00,
2013-06-24 14:02:00,91.0,74.0,30.10,NE,41,2.0,6.0,57,0.00,,,0.00,,2013-06-24 18:02:00,
2013-06-24 14:14:00,91.0,74.0,30.10,NE,41,2.0,6.0,57,0.00,,,0.00,,2013-06-24 18:14:00,
2013-06-24 14:25:00,91.0,74.0,30.09,SE,146,0.0,3.0,58,0.00,,,0.00,,2013-06-24 18:25:00,
2013-06-24 14:36:00,91.0,74.0,30.09,SE,146,0.0,3.0,58,0.00,,,0.00,,2013-06-24 18:36:00,
2013-06-24 14:46:00,91.0,74.0,30.09,SE,146,0.0,3.0,58,0.00,,,0.00,,2013-06-24 18:46:00,
2013-06-24 14:55:00,92.0,74.0,30.08,ENE,77,1.0,2.0,56,0.00,,,0.00,,2013-06-24 18:55:00,
2013-06-24 15:06:00,92.0,75.0,30.07,North,360,0.0,5.0,57,0.00,,,0.00,,2013-06-24 19:06:00,
2013-06-24 15:13:00,91.0,74.0,30.07,NE,34,0.0,5.0,58,0.00,,,0.00,,2013-06-24 19:13:00,
2013-06-24 15:25:00,92.0,76.0,30.06,East,80,2.0,3.0,59,0.00,,,0.00,,2013-06-24 19:25:00,
2013-06-24 15:37:00,91.0,76.0,30.06,ESE,103,5.0,6.0,61,0.00,,,0.00,,2013-06-24 19:37:00,
2013-06-24 15:54:00,92.0,75.0,30.06,ENE,67,0.0,7.0,57,0.00,,,0.00,,2013-06-24 19:54:00,
2013-06-24 16:05:00,92.0,75.0,30.06,ENE,67,0.0,7.0,57,0.00,,,0.00,,2013-06-24 20:05:00,
2013-06-24 16:45:00,90.0,74.0,30.05,NE,36,3.0,9.0,59,0.00,,,0.00,,2013-06-24 20:45:00,
2013-06-24 16:54:00,89.0,74.0,30.06,WSW,239,2.0,3.0,61,0.00,,,0.00,,2013-06-24 20:54:00,
2013-06-24 17:13:00,85.0,75.0,30.07,West,269,6.0,11.0,72,0.00,,,0.00,,2013-06-24 21:13:00,
2013-06-24 17:46:00,81.0,74.0,30.06,WSW,248,0.0,4.0,79,0.00,,,0.00,,2013-06-24 21:46:00,
2013-06-24 17:52:00,81.0,75.0,30.05,SW,229,0.0,3.0,81,0.00,,,0.00,,2013-06-24 21:52:00,
2013-06-24 17:55:00,81.0,74.0,30.06,WSW,248,0.0,4.0,79,0.00,,,0.00,,2013-06-24 21:55:00,
2013-06-24 18:15:00,81.0,75.0,30.05,SW,229,0.0,3.0,81,0.00,,,0.00,,2013-06-24 22:15:00,
2013-06-24 18:24:00,81.0,75.0,30.05,SW,229,0.0,3.0,81,0.00,,,0.00,,2013-06-24 22:24:00,
2013-06-24 18:36:00,81.0,75.0,30.05,SW,229,0.0,3.0,81,0.00,,,0.00,,2013-06-24 22:36:00,
2013-06-24 18:47:00,81.0,75.0,30.05,SW,229,0.0,3.0,81,0.00,,,0.00,,2013-06-24 22:47:00,
2013-06-24 19:37:00,82.0,76.0,30.05,SW,227,0.0,2.0,82,0.00,,,0.00,,2013-06-24 23:37:00,
2013-06-24 19:46:00,81.0,75.0,30.05,SW,227,0.0,2.0,82,0.00,,,0.00,,2013-06-24 23:46:00,
2013-06-24 19:56:00,81.0,75.0,30.06,SW,227,0.0,0.0,83,0.00,,,0.00,,2013-06-24 23:56:00,
2013-06-24 20:06:00,81.0,75.0,30.06,SW,227,0.0,0.0,83,0.00,,,0.00,,2013-06-25 00:06:00,
2013-06-24 20:12:00,81.0,76.0,30.06,SW,227,0.0,1.0,84,0.00,,,0.00,,2013-06-25 00:12:00,
2013-06-24 20:24:00,81.0,76.0,30.06,SW,227,0.0,1.0,84,0.00,,,0.00,,2013-06-25 00:24:00,
2013-06-24 20:34:00,80.0,75.0,30.06,SW,227,0.0,0.0,84,0.00,,,0.00,,2013-06-25 00:34:00,
2013-06-24 20:47:00,80.0,75.0,30.06,SW,227,0.0,0.0,85,0.00,,,0.00,,2013-06-25 00:47:00,
2013-06-24 20:54:00,80.0,75.0,30.06,SW,227,0.0,0.0,86,0.00,,,0.00,,2013-06-25 00:54:00,
2013-06-24 21:04:00,80.0,75.0,30.06,SW,227,0.0,0.0,86,0.00,,,0.00,,2013-06-25 01:04:00,
2013-06-24 21:16:00,79.0,74.0,30.06,SW,227,0.0,0.0,86,0.00,,,0.00,,2013-06-25 01:16:00,
2013-06-24 21:24:00,79.0,75.0,30.06,SW,227,0.0,0.0,87,0.00,,,0.00,,2013-06-25 01:24:00,
2013-06-24 21:36:00,79.0,75.0,30.06,SW,227,0.0,0.0,87,0.00,,,0.00,,2013-06-25 01:36:00,
2013-06-24 21:44:00,79.0,75.0,30.06,SW,227,0.0,0.0,87,0.00,,,0.00,,2013-06-25 01:44:00,
2013-06-24 21:55:00,79.0,75.0,30.06,SW,227,0.0,0.0,87,0.00,,,0.00,,2013-06-25 01:55:00,
2013-06-24 22:05:00,79.0,75.0,30.07,SW,227,0.0,0.0,88,0.00,,,0.00,,2013-06-25 02:05:00,
2013-06-24 22:16:00,79.0,75.0,30.07,SW,227,0.0,0.0,88,0.00,,,0.00,,2013-06-25 02:16:00,
2013-06-24 22:25:00,79.0,75.0,30.07,SW,227,0.0,0.0,88,0.00,,,0.00,,2013-06-25 02:25:00,
2013-06-24 22:58:00,77.0,73.0,30.09,SW,227,0.0,0.0,88,0.00,,,0.00,,2013-06-25 02:58:00,
2013-06-24 23:07:00,77.0,74.0,30.09,SW,227,0.0,0.0,89,0.00,,,0.00,,2013-06-25 03:07:00,
2013-06-24 23:17:00,77.0,74.0,30.09,SW,227,0.0,0.0,89,0.00,,,0.00,,2013-06-25 03:17:00,
2013-06-24 23:32:00,77.0,74.0,30.09,SW,227,0.0,0.0,89,0.00,,,0.00,,2013-06-25 03:32:00,